FW6477 Weather Reports


Display with metric or nautical units.
time (UTC)temp
F
wind
direction
speed
MPH
gust
MPH
rain 1hr
in
rain 24hr
in
rain mn
in
humidity
%
barometer
mb
20221003210952 40 106 0.0 1.0 0.00 0.01 0.01 75 1024.2
20221003210454 40 104 0.0 2.0 0.00 0.01 0.01 76 1024.1
20221003205452 39 105 0.0 2.0 0.01 0.01 0.01 76 1023.9
20221003203952 39 105 0.0 3.0 0.01 0.01 0.01 76 1023.6
20221003202952 39 106 0.0 0.0 0.01 0.01 0.01 76 1023.4
20221003202452 39 106 0.0 3.0 0.01 0.01 0.01 76 1023.3
20221003201955 39 106 0.0 3.0 0.01 0.01 0.01 75 1023.2
20221003201452 39 113 1.0 3.0 0.01 0.01 0.01 75 1023.1
20221003200456 39 133 1.0 4.0 0.01 0.01 0.01 75 1022.9
20221003195955 39 156 1.0 3.0 0.00 0.00 0.00 76 1022.8
20221003195451 39 157 1.0 3.0 0.00 0.00 0.00 76 1022.6
20221003194953 39 115 1.0 3.0 0.00 0.00 0.00 76 1022.5
20221003194451 39 133 1.0 3.0 0.00 0.00 0.00 75 1022.4
20221003193951 39 129 1.0 3.0 0.00 0.00 0.00 74 1022.4
20221003193454 39 129 0.0 3.0 0.00 0.00 0.00 74 1022.3
20221003192951 39 130 1.0 3.0 0.00 0.00 0.00 74 1022.3
20221003192451 40 130 1.0 3.0 0.00 0.00 0.00 74 1022.2
20221003191451 40 125 1.0 4.0 0.00 0.00 0.00 72 1022.0
20221003190955 40 161 2.0 3.0 0.00 0.00 0.00 71 1022.0
20221003190451 40 162 2.0 5.0 0.00 0.00 0.00 70 1021.8
20221003190206 40 161 2.0 5.0 0.00 0.00 0.00 70 1021.8
20221003184951 40 160 2.0 5.0 0.00 0.00 0.00 69 1021.5
20221003184452 40 160 2.0 5.0 0.00 0.00 0.00 69 1021.4
20221003182454 40 160 2.0 3.0 0.00 0.00 0.00 67 1021.1
20221003181951 40 160 1.0 3.0 0.00 0.00 0.00 67 1020.9
20221003180955 40 160 1.0 3.0 0.00 0.00 0.00 66 1020.8
20221003180001 40 160 2.0 4.0 0.00 0.00 0.00 65 1020.6
20221003175452 40 264 2.0 4.0 0.00 0.00 0.00 65 1020.5
20221003174452 39 319 2.0 4.0 0.00 0.00 0.00 67 1020.4
20221003173952 39 324 1.0 3.0 0.00 0.00 0.00 66 1020.3
20221003171451 38 332 0.0 2.0 0.00 0.00 0.00 67 1020.1
20221003170952 37 332 0.0 2.0 0.00 0.00 0.00 67 1020.1
20221003170453 37 332 0.0 0.0 0.00 0.00 0.00 68 1020.1
20221003165955 37 332 0.0 0.0 0.00 0.00 0.00 68 1020.1
20221003165451 37 333 0.0 0.0 0.00 0.00 0.00 68 1019.9
20221003164953 38 333 0.0 0.0 0.00 0.00 0.00 67 1019.9
20221003164451 38 333 0.0 0.0 0.00 0.00 0.00 67 1019.9
20221003163952 38 333 0.0 0.0 0.00 0.00 0.00 67 1019.8
20221003163454 38 333 0.0 0.0 0.00 0.00 0.00 66 1019.8
20221003162951 38 333 0.0 0.0 0.00 0.00 0.00 66 1019.8
20221003162451 38 333 0.0 0.0 0.00 0.00 0.00 66 1019.8
20221003161954 39 333 0.0 0.0 0.00 0.00 0.00 66 1019.9
20221003160951 39 333 0.0 2.0 0.00 0.00 0.00 66 1019.8
20221003160454 38 333 1.0 2.0 0.00 0.00 0.00 66 1019.7
20221003155954 38 333 1.0 2.0 0.00 0.00 0.00 66 1019.8
20221003155458 38 333 1.0 3.0 0.00 0.00 0.00 66 1019.8
20221003154953 38 333 0.0 3.0 0.00 0.00 0.00 66 1019.8
20221003154451 39 333 1.0 3.0 0.00 0.00 0.00 66 1019.8
20221003152952 39 334 0.0 0.0 0.00 0.00 0.00 66 1019.7
20221003151451 39 336 0.0 0.0 0.00 0.00 0.00 65 1019.6
20221003150952 39 336 0.0 0.0 0.00 0.00 0.00 65 1019.7
20221003145454 39 336 1.0 2.0 0.00 0.00 0.00 64 1019.7
20221003144955 39 336 1.0 3.0 0.00 0.00 0.00 64 1019.6
20221003144454 39 336 1.0 3.0 0.00 0.00 0.00 64 1019.5
20221003143954 39 31 1.0 3.0 0.00 0.00 0.00 64 1019.6
20221003142954 40 53 0.0 0.0 0.00 0.00 0.00 64 1019.5
20221003141955 40 54 0.0 0.0 0.00 0.00 0.00 64 1019.5
20221003141453 40 54 0.0 0.0 0.00 0.00 0.00 63 1019.4
20221003140954 40 54 0.0 0.0 0.00 0.00 0.00 64 1019.4
20221003135454 41 54 0.0 0.0 0.00 0.00 0.00 63 1019.2
20221003134454 41 54 0.0 0.0 0.00 0.00 0.00 63 1019.2
20221003133954 42 54 0.0 0.0 0.00 0.00 0.00 63 1019.2
20221003133455 42 54 0.0 0.0 0.00 0.00 0.00 63 1019.3
20221003132953 42 54 0.0 0.0 0.00 0.00 0.00 63 1019.3
20221003131454 42 54 0.0 0.0 0.00 0.00 0.00 64 1019.2
20221003130953 42 54 0.0 0.0 0.00 0.00 0.00 65 1019.2
20221003130455 42 54 0.0 0.0 0.00 0.00 0.00 64 1019.2
20221003124956 41 54 0.0 0.0 0.00 0.00 0.00 65 1019.1
20221003123953 41 54 0.0 0.0 0.00 0.00 0.00 66 1018.9
20221003123455 41 54 0.0 0.0 0.00 0.00 0.00 66 1019.0
20221003122953 41 54 0.0 0.0 0.00 0.00 0.00 66 1019.0
20221003120455 41 330 0.0 1.0 0.00 0.00 0.00 66 1018.7
20221003114953 42 330 0.0 0.0 0.00 0.00 0.00 65 1018.6
20221003113953 43 330 0.0 1.0 0.00 0.00 0.00 64 1018.6
20221003113455 43 330 1.0 3.0 0.00 0.00 0.00 64 1018.6
20221003112454 43 329 1.0 3.0 0.00 0.00 0.00 65 1018.6
20221003111955 43 308 0.0 4.0 0.00 0.00 0.00 64 1018.6
20221003111453 43 357 0.0 3.0 0.00 0.00 0.00 64 1018.6
20221003110954 43 5 0.0 0.0 0.00 0.00 0.00 64 1018.5
20221003110455 43 5 0.0 2.0 0.00 0.00 0.00 64 1018.5
20221003105956 44 5 0.0 2.0 0.00 0.00 0.00 64 1018.5
20221003105453 44 5 0.0 2.0 0.00 0.00 0.00 64 1018.4
20221003104956 44 5 1.0 3.0 0.00 0.00 0.00 63 1018.5
20221003104454 44 5 1.0 5.0 0.00 0.00 0.00 63 1018.5
20221003103954 44 4 1.0 5.0 0.00 0.00 0.00 63 1018.5
20221003103455 45 243 1.0 3.0 0.00 0.00 0.00 62 1018.4
20221003102954 45 206 0.0 2.0 0.00 0.00 0.00 63 1018.4
20221003102453 45 206 1.0 2.0 0.00 0.00 0.00 63 1018.4
20221003101955 45 205 1.0 2.0 0.00 0.00 0.00 63 1018.3
20221003101454 45 206 1.0 2.0 0.00 0.00 0.00 62 1018.2
20221003100954 45 206 1.0 2.0 0.00 0.00 0.00 61 1018.2
20221003100456 45 206 1.0 3.0 0.00 0.00 0.00 60 1018.2
20221003095956 46 249 0.0 3.0 0.00 0.00 0.00 60 1018.1
20221003095454 46 25 0.0 0.0 0.00 0.00 0.00 59 1018.1
20221003094956 46 25 0.0 2.0 0.00 0.00 0.00 59 1018.0
20221003093954 46 27 1.0 4.0 0.00 0.00 0.00 58 1017.9
20221003093456 46 27 1.0 4.0 0.00 0.00 0.00 56 1017.7
20221003092954 46 54 0.0 0.0 0.00 0.00 0.00 57 1017.6
20221003092453 46 54 1.0 1.0 0.00 0.00 0.00 57 1017.5
20221003091956 46 54 1.0 3.0 0.00 0.00 0.00 56 1017.4
20221003091453 47 54 0.0 3.0 0.00 0.00 0.00 56 1017.3
20221003090953 47 63 0.0 2.0 0.00 0.00 0.00 55 1017.2
20221003090455 47 63 1.0 2.0 0.00 0.00 0.00 54 1017.1
20221003085957 47 63 0.0 2.0 0.00 0.00 0.00 55 1017.0
20221003085453 48 65 0.0 1.0 0.00 0.00 0.00 55 1017.0
20221003084955 48 65 1.0 2.0 0.00 0.00 0.00 55 1016.9
20221003084454 48 65 1.0 3.0 0.00 0.00 0.00 54 1016.8
20221003083455 48 65 2.0 5.0 0.00 0.00 0.00 53 1016.6
20221003082953 48 32 1.0 4.0 0.00 0.00 0.00 53 1016.6
20221003081453 50 91 1.0 4.0 0.00 0.00 0.00 54 1016.3
20221003080954 50 93 1.0 4.0 0.00 0.00 0.00 52 1016.3
20221003080455 50 216 1.0 3.0 0.00 0.00 0.00 54 1016.3
20221003080000 50 315 1.0 3.0 0.00 0.00 0.00 53 1016.2
20221003075453 51 291 1.0 3.0 0.00 0.00 0.00 51 1016.2
20221003074956 51 286 1.0 3.0 0.00 0.00 0.00 51 1016.2
20221003074454 51 92 2.0 5.0 0.00 0.00 0.00 52 1016.1
20221003073954 51 92 3.0 5.0 0.00 0.00 0.00 53 1016.0
20221003073458 51 87 2.0 6.0 0.00 0.00 0.00 53 1016.0
20221003072954 51 205 1.0 6.0 0.00 0.00 0.00 51 1015.9
20221003072453 51 38 0.0 5.0 0.00 0.00 0.00 51 1015.9
20221003071955 52 69 0.0 4.0 0.00 0.00 0.00 49 1015.8
20221003070954 52 167 2.0 5.0 0.00 0.00 0.00 52 1015.7
20221003070455 52 166 1.0 5.0 0.00 0.00 0.00 55 1015.7
20221003065956 52 170 0.0 2.0 0.00 0.00 0.00 52 1015.6
20221003065454 52 166 0.0 0.0 0.00 0.00 0.00 54 1015.6
20221003064955 52 166 0.0 0.0 0.00 0.00 0.00 53 1015.6
20221003063954 53 166 0.0 2.0 0.00 0.00 0.00 53 1015.5
20221003062454 53 166 2.0 4.0 0.00 0.00 0.00 52 1015.3
20221003061956 53 168 1.0 4.0 0.00 0.00 0.00 51 1015.3
20221003061454 53 195 1.0 4.0 0.00 0.00 0.00 51 1015.3
20221003060954 53 160 0.0 2.0 0.00 0.00 0.00 51 1015.3
20221003060457 53 144 0.0 2.0 0.00 0.00 0.00 51 1015.3
20221003055956 53 242 1.0 3.0 0.00 0.00 0.00 49 1015.3
20221003055453 53 242 2.0 4.0 0.00 0.00 0.00 47 1015.3
20221003054955 53 245 2.0 4.0 0.00 0.00 0.00 49 1015.3
20221003053953 53 238 2.0 3.0 0.00 0.00 0.00 50 1015.3
20221003052954 53 250 2.0 3.0 0.00 0.00 0.00 48 1015.3
20221003051955 53 153 3.0 6.0 0.00 0.00 0.00 46 1015.5
20221003050954 54 343 3.0 7.0 0.00 0.00 0.00 47 1015.4
20221003050456 54 275 3.0 7.0 0.00 0.00 0.00 48 1015.5
20221003050000 54 288 3.0 8.0 0.00 0.00 0.00 46 1015.5
20221003044955 54 324 4.0 7.0 0.00 0.00 0.00 48 1015.6
20221003044454 54 321 5.0 7.0 0.00 0.00 0.00 46 1015.6
20221003043953 54 279 5.0 6.0 0.00 0.00 0.00 46 1015.6
20221003043455 55 281 5.0 9.0 0.00 0.00 0.00 45 1015.5
20221003042954 55 338 5.0 9.0 0.00 0.00 0.00 46 1015.6
20221003042453 55 289 4.0 9.0 0.00 0.00 0.00 46 1015.7
20221003041955 54 316 5.0 9.0 0.00 0.00 0.00 48 1015.6
20221003041453 53 306 4.0 8.0 0.00 0.00 0.00 47 1015.7
20221003040953 53 304 4.0 9.0 0.00 0.00 0.00 48 1015.8
20221003040001 53 244 4.0 7.0 0.00 0.00 0.00 45 1016.0
20221003035454 53 252 4.0 7.0 0.00 0.00 0.00 45 1016.0
20221003034955 53 256 3.0 7.0 0.00 0.00 0.00 45 1016.0
20221003034453 53 283 3.0 8.0 0.00 0.00 0.00 46 1016.1
20221003033953 53 120 3.0 8.0 0.00 0.00 0.00 46 1016.0
20221003033456 53 286 2.0 8.0 0.00 0.00 0.00 47 1016.1
20221003032954 53 236 3.0 6.0 0.00 0.00 0.00 47 1016.2
20221003031955 53 250 3.0 7.0 0.00 0.00 0.00 45 1016.4
20221003031453 54 181 3.0 6.0 0.00 0.00 0.00 45 1016.4
20221003030953 54 221 4.0 9.0 0.00 0.00 0.00 45 1016.6
20221003030455 54 249 4.0 9.0 0.00 0.00 0.00 47 1016.5
20221003025956 54 181 3.0 7.0 0.00 0.00 0.00 47 1016.6
20221003025454 54 132 3.0 7.0 0.00 0.00 0.00 51 1016.7
20221003024953 54 73 4.0 6.0 0.00 0.00 0.00 49 1016.7
20221003024453 54 139 3.0 8.0 0.00 0.00 0.00 53 1016.7
20221003023954 54 158 3.0 8.0 0.00 0.00 0.00 53 1016.7
20221003023452 54 244 3.0 6.0 0.00 0.00 0.00 52 1016.9
20221003022455 54 260 3.0 10.0 0.00 0.00 0.00 50 1016.9
20221003021953 54 181 3.0 7.0 0.00 0.00 0.00 51 1017.0
20221003021453 54 256 4.0 11.0 0.00 0.00 0.00 49 1016.9
20221003020453 53 304 4.0 12.0 0.00 0.00 0.00 51 1017.0
20221003015955 52 216 4.0 12.0 0.00 0.00 0.00 53 1017.1
20221003015454 51 253 3.0 9.0 0.00 0.00 0.00 54 1017.0
20221003014952 51 181 4.0 9.0 0.00 0.00 0.00 54 1017.0
20221003013954 51 94 4.0 9.0 0.00 0.00 0.00 55 1017.1
20221003013453 51 246 4.0 9.0 0.00 0.00 0.00 54 1017.2
20221003012953 52 123 3.0 9.0 0.00 0.00 0.00 53 1017.3
20221003012454 52 204 2.0 5.0 0.00 0.00 0.00 55 1017.3
20221003011953 52 302 2.0 7.0 0.00 0.00 0.00 57 1017.3
20221003011456 52 133 2.0 7.0 0.00 0.00 0.00 57 1017.3
20221003010954 52 269 1.0 7.0 0.00 0.00 0.00 58 1017.5
20221003010453 52 28 1.0 3.0 0.00 0.00 0.00 60 1017.5
20221003005955 52 133 0.0 3.0 0.00 0.00 0.00 61 1017.5
20221003005454 52 133 1.0 4.0 0.00 0.00 0.00 63 1017.6
20221003004452 51 105 1.0 4.0 0.00 0.00 0.00 60 1017.7
20221003003954 51 260 2.0 4.0 0.00 0.00 0.00 61 1017.9
20221003003453 52 271 1.0 3.0 0.00 0.00 0.00 61 1017.8
20221003002953 52 299 1.0 4.0 0.00 0.00 0.00 62 1017.9
20221003002454 52 26 1.0 4.0 0.00 0.00 0.00 60 1017.9
20221003001952 53 228 1.0 3.0 0.00 0.00 0.00 62 1018.0
20221003001452 52 291 1.0 4.0 0.00 0.00 0.00 62 1018.1
20221003000954 53 348 0.0 4.0 0.00 0.00 0.00 63 1018.1
20221003000454 52 358 0.0 2.0 0.00 0.00 0.00 65 1018.1
20221002235959 52 357 1.0 3.0 0.00 0.00 0.00 66 1018.1
20221002235454 51 15 1.0 3.0 0.00 0.00 0.00 63 1018.2
20221002234952 51 46 1.0 3.0 0.00 0.00 0.00 65 1018.3
20221002234452 51 88 1.0 3.0 0.00 0.00 0.00 64 1018.3
20221002232452 52 67 0.0 4.0 0.00 0.00 0.00 64 1018.5
20221002231953 51 67 0.0 4.0 0.00 0.00 0.00 66 1018.5
20221002225955 49 25 1.0 4.0 0.00 0.00 0.00 68 1018.7
20221002225454 49 114 0.0 2.0 0.00 0.00 0.00 70 1018.7
20221002224952 47 115 0.0 2.0 0.00 0.00 0.00 73 1018.8
20221002224452 46 115 0.0 2.0 0.00 0.00 0.00 72 1018.8
20221002223955 46 115 0.0 3.0 0.00 0.00 0.00 74 1018.8
20221002223452 45 129 0.0 3.0 0.00 0.00 0.00 74 1018.8
20221002222952 45 160 0.0 1.0 0.00 0.00 0.00 76 1018.8
20221002221952 44 161 0.0 0.0 0.00 0.00 0.00 76 1019.0
20221002220954 44 161 0.0 0.0 0.00 0.00 0.00 77 1019.0
20221002220452 44 162 0.0 0.0 0.00 0.00 0.00 78 1019.0
20221002215955 43 191 0.0 0.0 0.00 0.00 0.00 79 1019.0
20221002214953 43 195 0.0 0.0 0.00 0.00 0.00 80 1018.9
20221002213954 43 189 0.0 0.0 0.00 0.00 0.00 80 1019.0
20221002213453 43 194 0.0 0.0 0.00 0.00 0.00 81 1019.0
20221002212456 43 195 0.0 0.0 0.00 0.00 0.00 84 1019.0
20221002211953 43 195 0.0 0.0 0.00 0.00 0.00 87 1019.0